# ----------------------------------------
# www.emiratesid.ae
# Visitors Overview
# 20110101-20111231
# ----------------------------------------

Day,Visits
1/1/11,"1,370"
1/2/11,"3,718"
1/3/11,"3,831"
1/4/11,"3,308"
1/5/11,"3,108"
1/6/11,"2,456"
1/7/11,977
1/8/11,"1,610"
1/9/11,"3,298"
1/10/11,"3,185"
1/11/11,"2,789"
1/12/11,"2,741"
1/13/11,"2,228"
1/14/11,769
1/15/11,"1,415"
1/16/11,"2,955"
1/17/11,"2,733"
1/18/11,"2,623"
1/19/11,"2,510"
1/20/11,"2,255"
1/21/11,786
1/22/11,"1,585"
1/23/11,"3,293"
1/24/11,"2,895"
1/25/11,"2,883"
1/26/11,"2,924"
1/27/11,"2,102"
1/28/11,727
1/29/11,"1,382"
1/30/11,"2,799"
1/31/11,"3,574"
2/1/11,"3,079"
2/2/11,"2,849"
2/3/11,"2,421"
2/4/11,656
2/5/11,"1,464"
2/6/11,"2,827"
2/7/11,"3,288"
2/8/11,"2,618"
2/9/11,"2,535"
2/10/11,"2,057"
2/11/11,621
2/12/11,"1,373"
2/13/11,"2,593"
2/14/11,"2,615"
2/15/11,"2,604"
2/16/11,"2,208"
2/17/11,"1,011"
2/18/11,683
2/19/11,"1,425"
2/20/11,"3,210"
2/21/11,"2,933"
2/22/11,"2,693"
2/23/11,"2,503"
2/24/11,"2,035"
2/25/11,681
2/26/11,"1,361"
2/27/11,"2,809"
2/28/11,"2,571"
3/1/11,"2,546"
3/2/11,"2,458"
3/3/11,"2,113"
3/4/11,652
3/5/11,"1,445"
3/6/11,"2,602"
3/7/11,"2,722"
3/8/11,"2,525"
3/9/11,"2,825"
3/10/11,"2,306"
3/11/11,582
3/12/11,"1,326"
3/13/11,"2,539"
3/14/11,"2,758"
3/15/11,"2,728"
3/16/11,"2,424"
3/17/11,"1,995"
3/18/11,630
3/19/11,"1,257"
3/20/11,"2,638"
3/21/11,"2,839"
3/22/11,"2,860"
3/23/11,"2,570"
3/24/11,"1,955"
3/25/11,600
3/26/11,"1,270"
3/27/11,"2,752"
3/28/11,"2,834"
3/29/11,"2,636"
3/30/11,"2,443"
3/31/11,"2,209"
4/1/11,594
4/2/11,"1,196"
4/3/11,"2,625"
4/4/11,"3,173"
4/5/11,"3,066"
4/6/11,"2,770"
4/7/11,"2,244"
4/8/11,625
4/9/11,"1,349"
4/10/11,"2,997"
4/11/11,"2,882"
4/12/11,"2,995"
4/13/11,"2,877"
4/14/11,"2,513"
4/15/11,640
4/16/11,"1,472"
4/17/11,"3,214"
4/18/11,"3,218"
4/19/11,"3,149"
4/20/11,"3,254"
4/21/11,"2,609"
4/22/11,705
4/23/11,"1,580"
4/24/11,"3,354"
4/25/11,"3,553"
4/26/11,"3,201"
4/27/11,"3,146"
4/28/11,"2,537"
4/29/11,667
4/30/11,"1,520"
5/1/11,"3,341"
5/2/11,"3,212"
5/3/11,"3,199"
5/4/11,"3,029"
5/5/11,"2,549"
5/6/11,721
5/7/11,"1,636"
5/8/11,"3,329"
5/9/11,"3,721"
5/10/11,"3,750"
5/11/11,"3,575"
5/12/11,"3,173"
5/13/11,767
5/14/11,"1,752"
5/15/11,"3,769"
5/16/11,"4,186"
5/17/11,"3,589"
5/18/11,"3,758"
5/19/11,"3,060"
5/20/11,796
5/21/11,"1,950"
5/22/11,"3,978"
5/23/11,"3,764"
5/24/11,"3,420"
5/25/11,"3,408"
5/26/11,"3,007"
5/27/11,724
5/28/11,"1,854"
5/29/11,"3,961"
5/30/11,"3,907"
5/31/11,"3,798"
6/1/11,"3,777"
6/2/11,"3,237"
6/3/11,756
6/4/11,"1,905"
6/5/11,"4,090"
6/6/11,"4,362"
6/7/11,"3,909"
6/8/11,"3,676"
6/9/11,"3,066"
6/10/11,842
6/11/11,"2,030"
6/12/11,"3,821"
6/13/11,"3,700"
6/14/11,"3,948"
6/15/11,"3,703"
6/16/11,"3,134"
6/17/11,772
6/18/11,"2,074"
6/19/11,"3,851"
6/20/11,"3,870"
6/21/11,"3,718"
6/22/11,"3,905"
6/23/11,"3,134"
6/24/11,832
6/25/11,"1,864"
6/26/11,"3,890"
6/27/11,"4,073"
6/28/11,"3,803"
6/29/11,"3,086"
6/30/11,"1,014"
7/1/11,628
7/2/11,"1,707"
7/3/11,"3,609"
7/4/11,"3,535"
7/5/11,"3,109"
7/6/11,"3,054"
7/7/11,"2,995"
7/8/11,788
7/9/11,"1,802"
7/10/11,"3,598"
7/11/11,"3,493"
7/12/11,"3,450"
7/13/11,"3,323"
7/14/11,"2,773"
7/15/11,672
7/16/11,"1,647"
7/17/11,"3,349"
7/18/11,"3,387"
7/19/11,"3,395"
7/20/11,"3,086"
7/21/11,"2,708"
7/22/11,633
7/23/11,"1,695"
7/24/11,"3,226"
7/25/11,"3,324"
7/26/11,"3,064"
7/27/11,"3,593"
7/28/11,"2,992"
7/29/11,632
7/30/11,"1,551"
7/31/11,"3,232"
8/1/11,"2,559"
8/2/11,"2,612"
8/3/11,"2,616"
8/4/11,"2,368"
8/5/11,651
8/6/11,"1,494"
8/7/11,"2,892"
8/8/11,"2,869"
8/9/11,"2,707"
8/10/11,"2,594"
8/11/11,"2,522"
8/12/11,785
8/13/11,"1,795"
8/14/11,"3,257"
8/15/11,"3,254"
8/16/11,"3,381"
8/17/11,"2,850"
8/18/11,"3,400"
8/19/11,"1,269"
8/20/11,"2,144"
8/21/11,"4,374"
8/22/11,"4,872"
8/23/11,"5,230"
8/24/11,"4,096"
8/25/11,"3,968"
8/26/11,936
8/27/11,"1,941"
8/28/11,"2,479"
8/29/11,"2,557"
8/30/11,852
8/31/11,830
9/1/11,"1,887"
9/2/11,916
9/3/11,"2,892"
9/4/11,"7,024"
9/5/11,"6,194"
9/6/11,"5,912"
9/7/11,"5,465"
9/8/11,"4,264"
9/9/11,"1,009"
9/10/11,"3,237"
9/11/11,"7,975"
9/12/11,"6,428"
9/13/11,"5,962"
9/14/11,"6,483"
9/15/11,"10,973"
9/16/11,"2,254"
9/17/11,"4,878"
9/18/11,"9,224"
9/19/11,"7,764"
9/20/11,"7,754"
9/21/11,"6,891"
9/22/11,"6,007"
9/23/11,"1,509"
9/24/11,"3,836"
9/25/11,"7,226"
9/26/11,"7,028"
9/27/11,"7,032"
9/28/11,"6,611"
9/29/11,"5,459"
9/30/11,"1,442"
10/1/11,"3,493"
10/2/11,"6,865"
10/3/11,"6,546"
10/4/11,"6,578"
10/5/11,"7,493"
10/6/11,"5,554"
10/7/11,"1,646"
10/8/11,"3,941"
10/9/11,"7,980"
10/10/11,"7,210"
10/11/11,"6,499"
10/12/11,"6,404"
10/13/11,"5,632"
10/14/11,"1,535"
10/15/11,"3,716"
10/16/11,"7,826"
10/17/11,"8,121"
10/18/11,"7,373"
10/19/11,"7,492"
10/20/11,"5,914"
10/21/11,"1,545"
10/22/11,"3,986"
10/23/11,"7,568"
10/24/11,"7,394"
10/25/11,"6,932"
10/26/11,"6,737"
10/27/11,"6,186"
10/28/11,"1,556"
10/29/11,"4,681"
10/30/11,"10,301"
10/31/11,"10,862"
11/1/11,"8,670"
11/2/11,"8,061"
11/3/11,"6,329"
11/4/11,"1,291"
11/5/11,"1,180"
11/6/11,807
11/7/11,"1,174"
11/8/11,"3,855"
11/9/11,"6,591"
11/10/11,"5,540"
11/11/11,"1,416"
11/12/11,"3,743"
11/13/11,"7,676"
11/14/11,"7,462"
11/15/11,"8,058"
11/16/11,"7,508"
11/17/11,"5,915"
11/18/11,"1,583"
11/19/11,"4,237"
11/20/11,"7,724"
11/21/11,"7,624"
11/22/11,"7,731"
11/23/11,"8,752"
11/24/11,"6,743"
11/25/11,"1,703"
11/26/11,"4,294"
11/27/11,"8,598"
11/28/11,"8,870"
11/29/11,"9,246"
11/30/11,"7,844"
12/1/11,"2,396"
12/2/11,"1,444"
12/3/11,"2,691"
12/4/11,"8,981"
12/5/11,"8,904"
12/6/11,"8,047"
12/7/11,"7,920"
12/8/11,"6,563"
12/9/11,"1,916"
12/10/11,"4,994"
12/11/11,"8,544"
12/12/11,"8,137"
12/13/11,"8,213"
12/14/11,"8,360"
12/15/11,"7,171"
12/16/11,"1,850"
12/17/11,"4,863"
12/18/11,"8,529"
12/19/11,"8,143"
12/20/11,"7,727"
12/21/11,"7,425"
12/22/11,"6,266"
12/23/11,"1,618"
12/24/11,"4,300"
12/25/11,"7,286"
12/26/11,"11,717"
12/27/11,"8,120"
12/28/11,"7,968"
12/29/11,"7,531"
12/30/11,"1,744"
12/31/11,"3,785"
,"1,321,525"

